Aérodrome :
LOGIN :

S'inscrire | Disclaimer

   EN    FR    IT 

 










Légende :    VFR   VFR Marginal   IFR   IFR Intensif   IFR Très Intensif
Visi : 
Plafond : 
>= 8 km
>= 3000ft
5 à 8 km
1000 à 3000 ft
1500m à 5 km
500 à 1000 ft
800 à 1500m
200 à 500 ft
< 800m
< 200 ft
Symboles :   Orages  Brouillard  Fortes neiges  Fortes précipitations  Vent > 20 kt
SIGMETs :   Divers  Orages  Givrage  Turbulence  Onde Orograph.  Cendres Volcan.







- Altitude de l'aérodrome : 117 ft
- Code IATA : NWI
- Voir les cartes d'approche


EGSH - Norwich

DERNIER METAR :
  • 170920Z 27012KT 240V300 9999 FEW019 SCT033 20/12 Q1014 NOSIG

METARs EXPIRÉS :
  • 170850Z 27011KT 240V310 9999 FEW019 SCT033 19/12 Q1014 NOSIG
  • 170820Z 27010KT 230V300 9999 FEW019 SCT033 19/13 Q1013 NOSIG
  • 170750Z 28009KT 250V310 9999 SCT016 BKN021 18/13 Q1013 NOSIG
  • 170720Z 27009KT 9999 SCT012 BKN018 18/14 Q1013 NOSIG
  • 170650Z 27008KT 230V310 9999 SCT012 BKN018 17/14 Q1013 NOSIG

TAF TAF EGSH
Valide du 17 à 09h jusqu'au 17 à 18h UTC


170757Z 1709/1718 26008KT 9999 FEW045
ATIS : +44 1603 420 640
Pas de NOTAMs connus pour ce terrain.



MET'MAP, la Météo Aéronautique d'un coup d'oeil ! - Copyright ORBIFLY Décembre 2007 - Disclaimer

ORBIFLY MET'MAP TEAM :

Programmation & Développement : Alexandra Zaïnal
Conception & Développement : Baudouin d'Aumeries
Co-Programmation & Développement : Marc-Olivier Méhu
Soutien technique & logistique : Manuel Goepfert

Contact : metmap@orbifly.com




SOURCES & CREDITS :

   NOAA